User: anonymous   Login
Location: Bagnara
(41.0500°N, 14.7833°E)
Time: 10:14:32
(UTC+00:00)
Language:

SeaSat 1 - Orbit

View from above orbital plane
View from above orbital plane
View from above satellite
View from above satellite

Ground track
Ground track

The orbit data is extracted from the following two-line orbital elements,

1 10967U 78064A   21265.37433183 -.00000036  00000-0  29554-4 0  9995
2 10967 107.9972 316.1401 0002468 285.7822  74.3050 14.43896983271183
Epoch (UTC): 22 September 2021 08:59:02
Eccentricity: 0.0002468
inclination: 107.9972°
perigee height: 744 km
apogee height: 747 km
right ascension of ascending node: 316.1401°
argument of perigee: 285.7822°
revolutions per day: 14.43896983
mean anomaly at epoch: 74.3050°
orbit number at epoch: 27118

The dashed part of the orbit path shows where the satellite is in the earth's shadow,  

DLR